User: anonymous   Login
Location: Bartlow
(52.0833°N, 0.3167°E)
Time: 16:26:52
(UTC+00:00)
Language:

YAOGAN 6 - Orbit

View from above orbital plane
View from above orbital plane
View from above satellite
View from above satellite

Ground track
Ground track

The orbit data is extracted from the following two-line orbital elements,

1 34839U 09021A   24061.96719921  .00015779  00000-0  35430-3 0  9993
2 34839  97.1608  30.7511 0018164 204.0151 156.0252 15.43274852826895
Epoch (UTC): 01 March 2024 23:12:46
Eccentricity: 0.0018164
inclination: 97.1608°
perigee height: 424 km
apogee height: 449 km
right ascension of ascending node: 30.7511°
argument of perigee: 204.0151°
revolutions per day: 15.43274852
mean anomaly at epoch: 156.0252°
orbit number at epoch: 82689

The dashed part of the orbit path shows where the satellite is in the earth's shadow,  

DLR